Flag for United Kingdom Weather past 2 weeks in Inverness, Scotland, United Kingdom

Now
63 °F

Scattered clouds.


Feels Like: 63 °F
Forecast: 45 / 61 °F
Wind: 5 mph from West

Location: Inverness / Dalcross

Current Time: Sep 20, 2014 at 5:23:38 PM

Latest Report: Sep 20, 2014 at 2:20 PM


Visibility: N/A

Pressure: 30.12 "Hg

Humidity: 68%

Dew point: 52 °F

Location of InvernessLocation

Historic Weather in Inverness — Graph

°F

Inverness temperature yesterday

Maximum temperature yesterday: 64 °F (at 2:50 PM)
Minimum temperature yesterday: 50 °F (at 2:20 AM)
Average temperature yesterday: 58 °F

Past Weeks' High & Low Weather Summary

 TemperatureHumidityPressure
High70 °F (Sep 10, 2:20 PM)100% (Sep 5, 9:50 PM)30.45 "Hg (Sep 5, 9:50 PM)
Low39 °F (Sep 17, 4:50 AM)57% (Sep 10, 2:20 PM)29.92 "Hg (Sep 19, 5:20 AM)
Average55 °F91%30.14 "Hg
* Reported Sep 5 2:20 PM — Sep 20 2:20 PM, Inverness, Weather by CustomWeather, © 2014

Note: Actual official high and low records may vary slightly from our data, if they occured in-between our weather recording intervals... More about our weather records

Advertising

Inverness weather history for previous 24 hours

 ConditionsComfort  
Time TempWeatherWind HumidityBarometerVisibility
2:20 PM
Sep 20
63 °FScattered clouds.5 mph68%30.12 "HgN/A
1:50 PM64 °FScattered clouds.3 mph64%30.12 "HgN/A
1:20 PM61 °FScattered showers. Scattered clouds.5 mph72%30.15 "HgN/A
12:50 PM59 °FScattered showers. Scattered clouds.9 mph77%30.15 "HgN/A
12:20 PM59 °FScattered showers. Scattered clouds.7 mph72%30.12 "HgN/A
11:20 AM61 °FScattered clouds.7 mph72%30.12 "HgN/A
10:50 AM61 °FPassing clouds.8 mph77%30.12 "HgN/A
10:20 AM59 °FPassing clouds.6 mph77%30.12 "HgN/A
9:50 AM57 °FPassing clouds.9 mph82%30.12 "HgN/A
9:20 AM57 °FPassing clouds.8 mph82%30.09 "HgN/A
8:50 AM55 °FPassing clouds.8 mph88%30.09 "HgN/A
8:20 AM54 °FPassing clouds.5 mph94%30.09 "HgN/A
7:50 AM54 °FPassing clouds.7 mph94%30.09 "HgN/A
7:20 AM54 °FPassing clouds.6 mph94%30.07 "HgN/A
6:50 AM54 °FPassing clouds.5 mph94%30.07 "HgN/A
6:20 AM52 °FPassing clouds.5 mph94%30.07 "HgN/A
5:50 AM52 °FPassing clouds.3 mph100%30.07 "HgN/A
5:20 AM52 °FPassing clouds.3 mph100%30.07 "HgN/A
4:50 AM54 °FOvercast.2 mph94%30.07 "HgN/A
4:20 AM54 °FOvercast.5 mph94%30.07 "HgN/A
3:50 AM54 °FPassing clouds.3 mph94%30.07 "HgN/A
3:20 AM54 °FPartly cloudy.3 mph94%30.07 "HgN/A
2:50 AM55 °FPartly cloudy.No wind88%30.07 "HgN/A
2:20 AM55 °FPassing clouds.2 mph88%30.07 "HgN/A
1:50 AM55 °FPassing clouds.2 mph88%30.07 "HgN/A
12:50 AM55 °FOvercast.2 mph88%30.04 "HgN/A
12:20 AM55 °FOvercast.3 mph94%30.04 "HgN/A
11:50 PM
Sep 19
55 °FPassing clouds.5 mph94%30.04 "HgN/A
11:20 PM57 °FPassing clouds.6 mph88%30.04 "HgN/A
10:50 PM57 °FOvercast.6 mph88%30.01 "HgN/A
10:20 PM57 °FPassing clouds.3 mph94%30.01 "HgN/A
9:50 PM57 °FPassing clouds.5 mph94%30.01 "HgN/A
9:20 PM59 °FPassing clouds.3 mph88%30.01 "HgN/A
8:50 PM59 °FLight rain. Partly cloudy.7 mph94%30.01 "HgN/A
8:20 PM59 °FLight rain. Broken clouds.6 mph94%29.98 "HgN/A
7:50 PM59 °FBroken clouds.6 mph94%29.98 "HgN/A
7:20 PM59 °FPartly sunny.3 mph94%29.98 "HgN/A
6:50 PM61 °FPassing clouds.2 mph94%29.98 "HgN/A
6:20 PM61 °FPassing clouds.No wind94%29.95 "HgN/A
5:50 PM61 °FPassing clouds.No wind94%29.95 "HgN/A
5:20 PM61 °FPassing clouds.No wind94%29.95 "HgN/A
Weather by CustomWeather, © 2014

See weather overviewHow to use our weather pages